,,Stat5,,Stat1,,Stat2,,Stat3,,Stat4,,Wind1,,Wind1
time,status,PA1M_AVG,status,PR1M_SUM,status,RH1M_AVG,status,SR1M_AVG,status,TA1M_AVG,status,W1dAve1m,status,W1sAve1m
2000-06-25, 00:00:00,VALID,917.49,VALID,0,VALID,95.6755,VALID,-0.0679233,VALID,17.9788,VALID,174,VALID,0
2000-06-25, 00:01:00,VALID,917.495,VALID,0,VALID,95.7531,VALID,-0.0679233,VALID,17.953,VALID,174,VALID,0
2000-06-25, 00:02:00,VALID,917.518,VALID,0,VALID,96.0596,VALID,-0.0679233,VALID,17.9691,VALID,174,VALID,0
2000-06-25, 00:03:00,VALID,917.536,VALID,0,VALID,95.7226,VALID,-0.0679233,VALID,17.9396,VALID,174,VALID,0
2000-06-25, 00:04:00,VALID,917.532,VALID,0,VALID,95.7175,VALID,-0.101885,VALID,17.9465,VALID,174,VALID,0
2000-06-25, 00:05:00,VALID,917.533,VALID,0,VALID,95.7912,VALID,-0.0509425,VALID,17.9308,VALID,174,VALID,0
2000-06-25, 00:06:00,VALID,917.502,VALID,0,VALID,96.1104,VALID,-0.0849042,VALID,17.9112,VALID,174,VALID,0
2000-06-25, 00:07:00,VALID,917.49,VALID,0,VALID,95.7353,VALID,-0.0849042,VALID,17.8568,VALID,172,VALID,0
2000-06-25, 00:08:00,VALID,917.476,VALID,0,VALID,95.4962,VALID,-0.101885,VALID,17.7726,VALID,138,VALID,0
2000-06-25, 00:09:00,VALID,917.481,VALID,0,VALID,95.556,VALID,-0.0849042,VALID,17.6684,VALID,120,VALID,0
2000-06-25, 00:10:00,VALID,917.457,VALID,0,VALID,96.3698,VALID,-0.0849042,VALID,17.6561,VALID,115,VALID,0
2000-06-25, 00:11:00,VALID,917.466,VALID,0,VALID,96.7882,VALID,-0.0169808,VALID,17.6427,VALID,62,VALID,0.274023
2000-06-25, 00:12:00,VALID,917.475,VALID,0,VALID,97.4939,VALID,0,VALID,17.7232,VALID,320,VALID,0
2000-06-25, 00:13:00,VALID,917.471,VALID,0,VALID,98.0916,VALID,-0.0169808,VALID,17.8912,VALID,306,VALID,0
2000-06-25, 00:14:00,VALID,917.462,VALID,0,VALID,98.2098,VALID,-0.0339617,VALID,17.9949,VALID,295,VALID,0
2000-06-25, 00:15:00,VALID,917.429,VALID,0,VALID,98.2696,VALID,0,VALID,18.072,VALID,295,VALID,0
2000-06-25, 00:16:00,VALID,917.407,VALID,0,VALID,98.089,VALID,0,VALID,18.1045,VALID,295,VALID,0
2000-06-25, 00:17:00,VALID,917.373,VALID,0,VALID,97.4024,VALID,-0.0169808,VALID,18.0399,VALID,252,VALID,0
2000-06-25, 00:18:00,VALID,917.34,VALID,0,VALID,96.7564,VALID,0,VALID,17.9979,VALID,178,VALID,0
2000-06-25, 00:19:00,VALID,917.325,VALID,0,VALID,96.8734,VALID,-0.0339617,VALID,18.0042,VALID,178,VALID,0
2000-06-25, 00:20:00,VALID,917.318,VALID,0,VALID,96.9204,VALID,0,VALID,18.0111,VALID,178,VALID,0
2000-06-25, 00:21:00,VALID,917.322,VALID,0,VALID,96.7526,VALID,-0.0169808,VALID,17.985,VALID,178,VALID,0
2000-06-25, 00:22:00,VALID,917.323,VALID,0,VALID,96.8823,VALID,-0.0339617,VALID,17.9825,VALID,186,VALID,0
2000-06-25, 00:23:00,VALID,917.331,VALID,0,VALID,97.1748,VALID,-0.0339617,VALID,17.9917,VALID,238,VALID,0
2000-06-25, 00:24:00,VALID,917.335,VALID,0,VALID,97.5079,VALID,-0.0679233,VALID,18.0399,VALID,257,VALID,0
2000-06-25, 00:25:00,VALID,917.335,VALID,0,VALID,97.7457,VALID,-0.0509425,VALID,18.0757,VALID,258,VALID,0.0755859
2000-06-25, 00:26:00,VALID,917.319,VALID,0,VALID,97.6948,VALID,-0.0339617,VALID,18.0888,VALID,256,VALID,0.774239
2000-06-25, 00:27:00,VALID,917.296,VALID,0,VALID,96.9039,VALID,-0.0339617,VALID,18.0113,VALID,243,VALID,0.707031
2000-06-25, 00:28:00,VALID,917.284,VALID,0,VALID,96.4614,VALID,-0.0339617,VALID,17.8852,VALID,242,VALID,0.476151
2000-06-25, 00:29:00,VALID,917.276,VALID,0,VALID,96.525,VALID,-0.0169808,VALID,17.801,VALID,241,VALID,0.235156
2000-06-25, 00:30:00,VALID,917.272,VALID,0,VALID,96.2719,VALID,-0.0339617,VALID,17.7269,VALID,241,VALID,0
2000-06-25, 00:31:00,VALID,917.28,VALID,0,VALID,96.216,VALID,-0.0169808,VALID,17.6432,VALID,241,VALID,0
2000-06-25, 00:32:00,VALID,917.269,VALID,0,VALID,96.4843,VALID,-0.0509425,VALID,17.6008,VALID,241,VALID,0
2000-06-25, 00:33:00,VALID,917.267,VALID,0,VALID,96.5746,VALID,-0.0509425,VALID,17.5782,VALID,241,VALID,0
2000-06-25, 00:34:00,VALID,917.262,VALID,0,VALID,96.7043,VALID,-0.0509425,VALID,17.5588,VALID,241,VALID,0
2000-06-25, 00:35:00,VALID,917.242,VALID,0,VALID,96.9293,VALID,-0.0679233,VALID,17.5625,VALID,241,VALID,0
2000-06-25, 00:36:00,VALID,917.229,VALID,0,VALID,97.396,VALID,-0.0169808,VALID,17.5883,VALID,241,VALID,0
2000-06-25, 00:37:00,VALID,917.237,VALID,0,VALID,97.7966,VALID,-0.0509425,VALID,17.6469,VALID,241,VALID,0
2000-06-25, 00:38:00,VALID,917.231,VALID,0,VALID,97.864,VALID,-0.0339617,VALID,17.7048,VALID,241,VALID,0
2000-06-25, 00:39:00,VALID,917.216,VALID,0,VALID,97.5308,VALID,-0.0169808,VALID,17.6623,VALID,237,VALID,0
2000-06-25, 00:40:00,VALID,917.211,VALID,0,VALID,97.6046,VALID,-0.0339617,VALID,17.6301,VALID,204,VALID,0
2000-06-25, 00:41:00,VALID,917.196,VALID,0,VALID,97.8627,VALID,-0.0339617,VALID,17.6626,VALID,203,VALID,0.0509766
2000-06-25, 00:42:00,VALID,917.19,VALID,0,VALID,98.1132,VALID,-0.0339617,VALID,17.6852,VALID,202,VALID,0.166266
2000-06-25, 00:43:00,VALID,917.181,VALID,0,VALID,98.1755,VALID,-0.0169808,VALID,17.7564,VALID,200,VALID,0
2000-06-25, 00:44:00,VALID,917.19,VALID,0,VALID,97.9771,VALID,-0.0339617,VALID,17.6718,VALID,165,VALID,0
2000-06-25, 00:45:00,VALID,917.184,VALID,0,VALID,96.9281,VALID,-0.0339617,VALID,17.5846,VALID,160,VALID,0
2000-06-25, 00:46:00,VALID,917.184,VALID,0,VALID,95.8624,VALID,-0.0679233,VALID,17.4204,VALID,159,VALID,0.0448718
2000-06-25, 00:47:00,VALID,917.177,VALID,0,VALID,95.9019,VALID,-0.0339617,VALID,17.353,VALID,156,VALID,0.553906
2000-06-25, 00:48:00,VALID,917.178,VALID,0,VALID,96.5847,VALID,-0.0509425,VALID,17.2943,VALID,156,VALID,0.616365
2000-06-25, 00:49:00,VALID,917.173,VALID,0,VALID,97.8729,VALID,-0.0509425,VALID,17.3851,VALID,154,VALID,0.648828
2000-06-25, 00:50:00,VALID,917.174,VALID,0,VALID,97.63,VALID,-0.0509425,VALID,17.392,VALID,169,VALID,0.485978
2000-06-25, 00:51:00,VALID,917.157,VALID,0,VALID,97.5867,VALID,-0.0169808,VALID,17.3433,VALID,189,VALID,0.406641
2000-06-25, 00:52:00,VALID,917.153,VALID,0,VALID,97.6783,VALID,-0.0849042,VALID,17.33,VALID,209,VALID,0.263363
2000-06-25, 00:53:00,VALID,917.15,VALID,0,VALID,97.5753,VALID,-0.0509425,VALID,17.3078,VALID,209,VALID,0
2000-06-25, 00:54:00,VALID,917.145,VALID,0,VALID,97.3986,VALID,-0.0849042,VALID,17.2691,VALID,209,VALID,0
2000-06-25, 00:55:00,VALID,917.125,VALID,0,VALID,97.0044,VALID,-0.0679233,VALID,17.2241,VALID,189,VALID,0.216797
2000-06-25, 00:56:00,VALID,917.113,VALID,0,VALID,96.4131,VALID,-0.101885,VALID,17.1501,VALID,174,VALID,0.510074
2000-06-25, 00:57:00,VALID,917.084,VALID,0,VALID,97.3909,VALID,-0.0849042,VALID,17.1819,VALID,173,VALID,0.369727
2000-06-25, 00:58:00,VALID,917.051,VALID,0,VALID,98.3434,VALID,-0.101885,VALID,17.3378,VALID,172,VALID,0.139022
2000-06-25, 00:59:00,VALID,917.015,VALID,0,VALID,98.7337,VALID,-0.101885,VALID,17.5018,VALID,169,VALID,0
2000-06-25, 01:00:00,VALID,916.975,VALID,0,VALID,98.6905,VALID,-0.101885,VALID,17.5894,VALID,168,VALID,0
2000-06-25, 01:01:00,VALID,916.927,VALID,0,VALID,98.6714,VALID,-0.101885,VALID,17.6411,VALID,168,VALID,0
2000-06-25, 01:02:00,VALID,916.889,VALID,0,VALID,98.5036,VALID,-0.118866,VALID,17.6669,VALID,168,VALID,0
2000-06-25, 01:03:00,VALID,916.85,VALID,0,VALID,98.2772,VALID,-0.0849042,VALID,17.6376,VALID,168,VALID,0
2000-06-25, 01:04:00,VALID,916.834,VALID,0,VALID,98.0496,VALID,-0.101885,VALID,17.6284,VALID,168,VALID,0
2000-06-25, 01:05:00,VALID,916.841,VALID,0,VALID,98.0038,VALID,-0.0849042,VALID,17.6017,VALID,168,VALID,0
2000-06-25, 01:06:00,VALID,916.828,VALID,0,VALID,97.967,VALID,-0.101885,VALID,17.6284,VALID,174,VALID,0
2000-06-25, 01:07:00,VALID,916.841,VALID,0,VALID,97.5206,VALID,-0.101885,VALID,17.573,VALID,219,VALID,0
2000-06-25, 01:08:00,VALID,916.828,VALID,0,VALID,97.5715,VALID,-0.0679233,VALID,17.5438,VALID,222,VALID,0
2000-06-25, 01:09:00,VALID,916.829,VALID,0,VALID,97.7838,VALID,-0.101885,VALID,17.5407,VALID,222,VALID,0
2000-06-25, 01:10:00,VALID,916.824,VALID,0,VALID,98.0725,VALID,-0.0509425,VALID,17.5917,VALID,222,VALID,0
2000-06-25, 01:11:00,VALID,916.846,VALID,0,VALID,97.8551,VALID,0.0169808,VALID,17.5752,VALID,222,VALID,0
2000-06-25, 01:12:00,VALID,916.836,VALID,0,VALID,97.8627,VALID,0,VALID,17.5657,VALID,216,VALID,0
2000-06-25, 01:13:00,VALID,916.841,VALID,0,VALID,97.883,VALID,0.0169808,VALID,17.5459,VALID,209,VALID,0
2000-06-25, 01:14:00,VALID,916.84,VALID,0,VALID,97.6402,VALID,0,VALID,17.5101,VALID,206,VALID,0
2000-06-25, 01:15:00,VALID,916.849,VALID,0,VALID,97.4799,VALID,0.0509425,VALID,17.4619,VALID,201,VALID,0
2000-06-25, 01:16:00,VALID,916.839,VALID,0,VALID,97.5015,VALID,0.0339617,VALID,17.4327,VALID,198,VALID,0
2000-06-25, 01:17:00,VALID,916.841,VALID,0,VALID,97.6783,VALID,-0.0169808,VALID,17.4296,VALID,198,VALID,0
2000-06-25, 01:18:00,VALID,916.847,VALID,0,VALID,97.2828,VALID,0.0169808,VALID,17.3877,VALID,198,VALID,0
2000-06-25, 01:19:00,VALID,916.842,VALID,0,VALID,97.1938,VALID,0,VALID,17.3364,VALID,198,VALID,0
2000-06-25, 01:20:00,VALID,916.841,VALID,0,VALID,97.2981,VALID,0.0169808,VALID,17.3035,VALID,198,VALID,0
2000-06-25, 01:21:00,VALID,916.827,VALID,0,VALID,97.1557,VALID,0,VALID,17.262,VALID,198,VALID,0
2000-06-25, 01:22:00,VALID,916.818,VALID,0,VALID,96.839,VALID,0,VALID,17.1909,VALID,198,VALID,0
2000-06-25, 01:23:00,VALID,916.802,VALID,0,VALID,96.9904,VALID,0.0169808,VALID,17.1457,VALID,193,VALID,0
2000-06-25, 01:24:00,VALID,916.785,VALID,0,VALID,97.6885,VALID,0,VALID,17.1974,VALID,174,VALID,0
2000-06-25, 01:25:00,VALID,916.769,VALID,0,VALID,98.0165,VALID,0,VALID,17.2392,VALID,174,VALID,0
2000-06-25, 01:26:00,VALID,916.746,VALID,0,VALID,98.2098,VALID,0,VALID,17.3072,VALID,174,VALID,0
2000-06-25, 01:27:00,VALID,916.708,VALID,0,VALID,98.1882,VALID,0.0509425,VALID,17.3197,VALID,174,VALID,0
2000-06-25, 01:28:00,VALID,916.662,VALID,0,VALID,98.192,VALID,0.0339617,VALID,17.3526,VALID,174,VALID,0
2000-06-25, 01:29:00,VALID,916.636,VALID,0,VALID,97.9619,VALID,0,VALID,17.3169,VALID,174,VALID,0
2000-06-25, 01:30:00,VALID,916.598,VALID,0,VALID,98.1399,VALID,0,VALID,17.3201,VALID,174,VALID,0
2000-06-25, 01:31:00,VALID,916.573,VALID,0,VALID,98.281,VALID,0,VALID,17.3814,VALID,174,VALID,0
2000-06-25, 01:32:00,VALID,916.561,VALID,0,VALID,98.4082,VALID,0,VALID,17.4266,VALID,147,VALID,0
2000-06-25, 01:33:00,VALID,916.552,VALID,0,VALID,97.9848,VALID,0.0169808,VALID,17.3974,VALID,153,VALID,0
2000-06-25, 01:34:00,VALID,916.549,VALID,0,VALID,97.0412,VALID,0.0169808,VALID,17.2714,VALID,153,VALID,0
2000-06-25, 01:35:00,VALID,916.553,VALID,0,VALID,95.9413,VALID,0.0169808,VALID,17.1419,VALID,153,VALID,0
2000-06-25, 01:36:00,VALID,916.556,VALID,0,VALID,95.467,VALID,0,VALID,17.0678,VALID,151,VALID,0
2000-06-25, 01:37:00,VALID,916.537,VALID,0,VALID,95.5954,VALID,0,VALID,17.0002,VALID,148,VALID,0
2000-06-25, 01:38:00,VALID,916.523,VALID,0,VALID,96.5364,VALID,0.0339617,VALID,17.0033,VALID,148,VALID,0
2000-06-25, 01:39:00,VALID,916.503,VALID,0,VALID,97.6325,VALID,0,VALID,17.081,VALID,148,VALID,0
2000-06-25, 01:40:00,VALID,916.503,VALID,0,VALID,97.7241,VALID,-0.0509425,VALID,17.1173,VALID,149,VALID,0
2000-06-25, 01:41:00,VALID,916.489,VALID,0,VALID,97.5995,VALID,-0.101885,VALID,17.0954,VALID,149,VALID,0
2000-06-25, 01:42:00,VALID,916.476,VALID,0,VALID,97.5766,VALID,-0.0679233,VALID,17.0788,VALID,149,VALID,0
2000-06-25, 01:43:00,VALID,916.474,VALID,0,VALID,97.9326,VALID,-0.0679233,VALID,17.1053,VALID,149,VALID,0
2000-06-25, 01:44:00,VALID,916.459,VALID,0,VALID,98.4743,VALID,-0.0679233,VALID,17.1888,VALID,151,VALID,0
2000-06-25, 01:45:00,VALID,916.457,VALID,0,VALID,98.6447,VALID,-0.0679233,VALID,17.2891,VALID,180,VALID,0
2000-06-25, 01:46:00,VALID,916.449,VALID,0,VALID,98.6053,VALID,-0.0679233,VALID,17.3279,VALID,199,VALID,0
2000-06-25, 01:47:00,VALID,916.451,VALID,0,VALID,98.7007,VALID,-0.0849042,VALID,17.3632,VALID,200,VALID,0
2000-06-25, 01:48:00,VALID,916.452,VALID,0,VALID,98.6981,VALID,-0.0679233,VALID,17.3957,VALID,200,VALID,0
2000-06-25, 01:49:00,VALID,916.441,VALID,0,VALID,98.6714,VALID,-0.0679233,VALID,17.418,VALID,189,VALID,0
2000-06-25, 01:50:00,VALID,916.431,VALID,0,VALID,98.178,VALID,-0.0679233,VALID,17.3405,VALID,175,VALID,0
2000-06-25, 01:51:00,VALID,916.435,VALID,0,VALID,97.8398,VALID,-0.0339617,VALID,17.2534,VALID,176,VALID,0
2000-06-25, 01:52:00,VALID,916.444,VALID,0,VALID,97.766,VALID,-0.101885,VALID,17.2082,VALID,176,VALID,0
2000-06-25, 01:53:00,VALID,916.443,VALID,0,VALID,97.6885,VALID,-0.0679233,VALID,17.1757,VALID,176,VALID,0
2000-06-25, 01:54:00,VALID,916.437,VALID,0,VALID,97.6974,VALID,-0.0339617,VALID,17.1434,VALID,176,VALID,0
2000-06-25, 01:55:00,VALID,916.413,VALID,0,VALID,97.513,VALID,-0.0339617,VALID,17.0947,VALID,178,VALID,0
2000-06-25, 01:56:00,VALID,916.412,VALID,0,VALID,97.335,VALID,0.0339617,VALID,17.0198,VALID,181,VALID,0
2000-06-25, 01:57:00,VALID,916.407,VALID,0,VALID,97.148,VALID,0.0339617,VALID,16.9589,VALID,171,VALID,0
2000-06-25, 01:58:00,VALID,916.385,VALID,0,VALID,96.7653,VALID,0,VALID,16.8556,VALID,170,VALID,0
2000-06-25, 01:59:00,VALID,916.38,VALID,0,VALID,97.3896,VALID,0.0169808,VALID,16.8489,VALID,181,VALID,0
2000-06-25, 02:00:00,VALID,916.363,VALID,0,VALID,97.6732,VALID,0,VALID,16.8687,VALID,181,VALID,0
2000-06-25, 02:01:00,VALID,916.351,VALID,0,VALID,97.8195,VALID,0,VALID,16.8425,VALID,191,VALID,0
2000-06-25, 02:02:00,VALID,916.349,VALID,0,VALID,97.9072,VALID,0.0169808,VALID,16.8365,VALID,180,VALID,0
2000-06-25, 02:03:00,VALID,916.341,VALID,0,VALID,97.9441,VALID,0.0169808,VALID,16.8072,VALID,170,VALID,0
2000-06-25, 02:04:00,VALID,916.34,VALID,0,VALID,97.9428,VALID,0.0169808,VALID,16.7848,VALID,166,VALID,0
2000-06-25, 02:05:00,VALID,916.342,VALID,0,VALID,98.0064,VALID,0.0169808,VALID,16.7553,VALID,166,VALID,0
2000-06-25, 02:06:00,VALID,916.347,VALID,0,VALID,97.9046,VALID,0.0169808,VALID,16.7398,VALID,166,VALID,0
2000-06-25, 02:07:00,VALID,916.347,VALID,0,VALID,97.7266,VALID,0.0169808,VALID,16.688,VALID,166,VALID,0
2000-06-25, 02:08:00,VALID,916.348,VALID,0,VALID,97.6185,VALID,0,VALID,16.6555,VALID,166,VALID,0
2000-06-25, 02:09:00,VALID,916.35,VALID,0,VALID,97.4748,VALID,0.0169808,VALID,16.6202,VALID,167,VALID,0
2000-06-25, 02:10:00,VALID,916.337,VALID,0,VALID,97.7508,VALID,0,VALID,16.6131,VALID,204,VALID,0
2000-06-25, 02:11:00,VALID,916.328,VALID,0,VALID,97.953,VALID,0.0169808,VALID,16.6395,VALID,226,VALID,0
2000-06-25, 02:12:00,VALID,916.319,VALID,0,VALID,98.0293,VALID,0,VALID,16.6296,VALID,221,VALID,0
2000-06-25, 02:13:00,VALID,916.311,VALID,0,VALID,98.248,VALID,0.0339617,VALID,16.6557,VALID,215,VALID,0
2000-06-25, 02:14:00,VALID,916.296,VALID,0,VALID,98.585,VALID,0.0339617,VALID,16.7073,VALID,206,VALID,0
2000-06-25, 02:15:00,VALID,916.292,VALID,0,VALID,98.8304,VALID,0.0339617,VALID,16.8042,VALID,197,VALID,0
2000-06-25, 02:16:00,VALID,916.279,VALID,0,VALID,98.5913,VALID,0.0339617,VALID,16.7622,VALID,184,VALID,0
2000-06-25, 02:17:00,VALID,916.286,VALID,0,VALID,98.9779,VALID,0.0509425,VALID,16.8464,VALID,182,VALID,0
2000-06-25, 02:18:00,VALID,916.276,VALID,0,VALID,99.0949,VALID,0.0169808,VALID,16.9337,VALID,182,VALID,0
2000-06-25, 02:19:00,VALID,916.27,VALID,0,VALID,99.133,VALID,0,VALID,16.9856,VALID,198,VALID,0
2000-06-25, 02:20:00,VALID,916.233,VALID,0,VALID,99.1318,VALID,0,VALID,17.0011,VALID,199,VALID,0
2000-06-25, 02:21:00,VALID,916.207,VALID,0,VALID,99.1356,VALID,0,VALID,17.014,VALID,198,VALID,0
2000-06-25, 02:22:00,VALID,916.183,VALID,0,VALID,99.4051,VALID,0.0169808,VALID,17.124,VALID,194,VALID,0
2000-06-25, 02:23:00,VALID,916.154,VALID,0,VALID,99.381,VALID,0,VALID,17.2204,VALID,188,VALID,0
2000-06-25, 02:24:00,VALID,916.149,VALID,0,VALID,99.3021,VALID,0.0169808,VALID,17.2045,VALID,188,VALID,0
2000-06-25, 02:25:00,VALID,916.14,VALID,0,VALID,99.2678,VALID,-0.0169808,VALID,17.1957,VALID,188,VALID,0
2000-06-25, 02:26:00,VALID,916.16,VALID,0,VALID,99.4751,VALID,-0.0509425,VALID,17.251,VALID,197,VALID,0.699319
2000-06-25, 02:27:00,VALID,916.166,VALID,0,VALID,99.648,VALID,-0.101885,VALID,17.4023,VALID,193,VALID,1.11777
2000-06-25, 02:28:00,VALID,916.18,VALID,0,VALID,99.7307,VALID,-0.0849042,VALID,17.5509,VALID,189,VALID,1.29359
2000-06-25, 02:29:00,VALID,916.196,VALID,0,VALID,99.765,VALID,-0.0849042,VALID,17.7192,VALID,193,VALID,1.27168
2000-06-25, 02:30:00,VALID,916.193,VALID,0,VALID,99.7281,VALID,-0.0849042,VALID,17.7968,VALID,192,VALID,1.42087
2000-06-25, 02:31:00,VALID,916.205,VALID,0,VALID,99.7065,VALID,-0.101885,VALID,17.8577,VALID,184,VALID,1.43047
2000-06-25, 02:32:00,VALID,916.213,VALID,0,VALID,99.6735,VALID,-0.0509425,VALID,17.9617,VALID,181,VALID,1.33758
2000-06-25, 02:33:00,VALID,916.217,VALID,0,VALID,99.5552,VALID,-0.0509425,VALID,17.9935,VALID,177,VALID,0.935156
2000-06-25, 02:34:00,VALID,916.22,VALID,0,VALID,99.4891,VALID,-0.0849042,VALID,17.9933,VALID,181,VALID,1.00561
2000-06-25, 02:35:00,VALID,916.209,VALID,0,VALID,99.428,VALID,-0.0679233,VALID,18.042,VALID,188,VALID,1.06953
2000-06-25, 02:36:00,VALID,916.181,VALID,0,VALID,99.2538,VALID,-0.0679233,VALID,18.0189,VALID,194,VALID,0.935238
2000-06-25, 02:37:00,VALID,916.155,VALID,0,VALID,99.0313,VALID,-0.0849042,VALID,17.961,VALID,184,VALID,0.732572
2000-06-25, 02:38:00,VALID,916.145,VALID,0,VALID,98.8037,VALID,-0.101885,VALID,17.9156,VALID,183,VALID,0.646234
2000-06-25, 02:39:00,VALID,916.133,VALID,0,VALID,98.5799,VALID,-0.0679233,VALID,17.851,VALID,184,VALID,0.441406
2000-06-25, 02:40:00,VALID,916.131,VALID,0,VALID,98.454,VALID,-0.0679233,VALID,17.8094,VALID,184,VALID,0.232936
2000-06-25, 02:41:00,VALID,916.154,VALID,0,VALID,98.3408,VALID,-0.0339617,VALID,17.7767,VALID,184,VALID,0.124609
2000-06-25, 02:42:00,VALID,916.178,VALID,0,VALID,98.1081,VALID,-0.0679233,VALID,17.7121,VALID,184,VALID,0
2000-06-25, 02:43:00,VALID,916.194,VALID,0,VALID,98.0522,VALID,-0.0679233,VALID,17.6667,VALID,184,VALID,0
2000-06-25, 02:44:00,VALID,916.199,VALID,0,VALID,98.0267,VALID,-0.0339617,VALID,17.6411,VALID,184,VALID,0
2000-06-25, 02:45:00,VALID,916.173,VALID,0,VALID,98.0445,VALID,-0.101885,VALID,17.612,VALID,184,VALID,0
2000-06-25, 02:46:00,VALID,916.152,VALID,0,VALID,98.089,VALID,-0.101885,VALID,17.5855,VALID,184,VALID,0
2000-06-25, 02:47:00,VALID,916.138,VALID,0,VALID,98.1297,VALID,-0.0509425,VALID,17.5599,VALID,184,VALID,0
2000-06-25, 02:48:00,VALID,916.111,VALID,0,VALID,98.0725,VALID,-0.0849042,VALID,17.5375,VALID,184,VALID,0
2000-06-25, 02:49:00,VALID,916.111,VALID,0,VALID,98,VALID,-0.0849042,VALID,17.4923,VALID,186,VALID,0
2000-06-25, 02:50:00,VALID,916.107,VALID,0,VALID,97.9441,VALID,-0.0679233,VALID,17.4506,VALID,186,VALID,0
2000-06-25, 02:51:00,VALID,916.115,VALID,0,VALID,97.9136,VALID,-0.0679233,VALID,17.4116,VALID,186,VALID,0
2000-06-25, 02:52:00,VALID,916.119,VALID,0,VALID,97.9873,VALID,-0.101885,VALID,17.3924,VALID,186,VALID,0
2000-06-25, 02:53:00,VALID,916.133,VALID,0,VALID,98.1488,VALID,-0.101885,VALID,17.3698,VALID,186,VALID,0
2000-06-25, 02:54:00,VALID,916.142,VALID,0,VALID,98.103,VALID,-0.0679233,VALID,17.35,VALID,186,VALID,0
2000-06-25, 02:55:00,VALID,916.123,VALID,0,VALID,98.248,VALID,-0.0849042,VALID,17.3403,VALID,186,VALID,0
2000-06-25, 02:56:00,VALID,916.109,VALID,0,VALID,98.3828,VALID,-0.0679233,VALID,17.3565,VALID,187,VALID,0.0762747
2000-06-25, 02:57:00,VALID,916.088,VALID,0,VALID,98.4069,VALID,-0.0509425,VALID,17.3371,VALID,184,VALID,0.678711
2000-06-25, 02:58:00,VALID,916.073,VALID,0,VALID,98.4311,VALID,-0.0679233,VALID,17.3438,VALID,194,VALID,0.61879
2000-06-25, 02:59:00,VALID,916.076,VALID,0,VALID,98.3205,VALID,-0.0679233,VALID,17.2852,VALID,226,VALID,0.505664
2000-06-25, 03:00:00,VALID,916.077,VALID,0,VALID,98.4743,VALID,-0.0509425,VALID,17.279,VALID,223,VALID,0.612253
2000-06-25, 03:01:00,VALID,916.071,VALID,0,VALID,98.6473,VALID,-0.101885,VALID,17.305,VALID,222,VALID,0.611719
2000-06-25, 03:02:00,VALID,916.084,VALID,0,VALID,98.8177,VALID,-0.0169808,VALID,17.3597,VALID,234,VALID,0.734776
2000-06-25, 03:03:00,VALID,916.096,VALID,0,VALID,98.9804,VALID,-0.0339617,VALID,17.4241,VALID,228,VALID,0.707812
2000-06-25, 03:04:00,VALID,916.096,VALID,0,VALID,99.0084,VALID,-0.0509425,VALID,17.4792,VALID,212,VALID,0.596834
2000-06-25, 03:05:00,VALID,916.091,VALID,0,VALID,98.9919,VALID,-0.0509425,VALID,17.5145,VALID,209,VALID,0.518164
2000-06-25, 03:06:00,VALID,916.089,VALID,0,VALID,98.9194,VALID,-0.0509425,VALID,17.5145,VALID,207,VALID,0.432091
2000-06-25, 03:07:00,VALID,916.076,VALID,0,VALID,98.7833,VALID,-0.0679233,VALID,17.4792,VALID,195,VALID,0.617188
2000-06-25, 03:08:00,VALID,916.062,VALID,0,VALID,98.8596,VALID,-0.0679233,VALID,17.4794,VALID,189,VALID,0.605058
2000-06-25, 03:09:00,VALID,916.015,VALID,0,VALID,98.8545,VALID,-0.0509425,VALID,17.502,VALID,189,VALID,0.612891
2000-06-25, 03:10:00,VALID,915.987,VALID,0,VALID,98.7935,VALID,-0.0849042,VALID,17.4953,VALID,190,VALID,0.391026
2000-06-25, 03:11:00,VALID,915.966,VALID,0,VALID,98.6574,VALID,-0.0509425,VALID,17.4437,VALID,190,VALID,0.00703125
2000-06-25, 03:12:00,VALID,915.946,VALID,0,VALID,98.6574,VALID,-0.0509425,VALID,17.4342,VALID,190,VALID,0
2000-06-25, 03:13:00,VALID,915.94,VALID,0,VALID,98.6244,VALID,-0.0679233,VALID,17.4144,VALID,190,VALID,0.000976563
2000-06-25, 03:14:00,VALID,915.958,VALID,0,VALID,98.6295,VALID,-0.0509425,VALID,17.4051,VALID,187,VALID,0
2000-06-25, 03:15:00,VALID,915.993,VALID,0,VALID,98.9677,VALID,-0.0339617,VALID,17.4467,VALID,181,VALID,0
2000-06-25, 03:16:00,VALID,916.013,VALID,0,VALID,99.0338,VALID,-0.0679233,VALID,17.5341,VALID,192,VALID,0
2000-06-25, 03:17:00,VALID,916.025,VALID,0,VALID,98.9029,VALID,-0.0849042,VALID,17.5179,VALID,196,VALID,0.147852
2000-06-25, 03:18:00,VALID,916.022,VALID,0,VALID,98.8711,VALID,-0.0849042,VALID,17.5082,VALID,184,VALID,0.536058
2000-06-25, 03:19:00,VALID,915.997,VALID,0,VALID,98.5977,VALID,-0.0679233,VALID,17.4271,VALID,179,VALID,0.492969
2000-06-25, 03:20:00,VALID,915.974,VALID,0,VALID,97.869,VALID,-0.0509425,VALID,17.2469,VALID,157,VALID,0.548109
2000-06-25, 03:21:00,VALID,915.945,VALID,0,VALID,97.8792,VALID,-0.0169808,VALID,17.169,VALID,142,VALID,0.820898
2000-06-25, 03:22:00,VALID,915.929,VALID,0,VALID,98.4451,VALID,-0.0679233,VALID,17.2562,VALID,148,VALID,0.715946
2000-06-25, 03:23:00,VALID,915.922,VALID,0,VALID,98.6244,VALID,-0.0509425,VALID,17.3016,VALID,156,VALID,0.675391
2000-06-25, 03:24:00,VALID,915.922,VALID,0,VALID,98.791,VALID,-0.0679233,VALID,17.3659,VALID,155,VALID,0.436061
2000-06-25, 03:25:00,VALID,915.923,VALID,0,VALID,98.7528,VALID,-0.0509425,VALID,17.3662,VALID,160,VALID,0.263281
2000-06-25, 03:26:00,VALID,915.937,VALID,0,VALID,98.7299,VALID,-0.0679233,VALID,17.3664,VALID,160,VALID,0.0126202
2000-06-25, 03:27:00,VALID,915.936,VALID,0,VALID,98.7388,VALID,-0.101885,VALID,17.386,VALID,160,VALID,0
2000-06-25, 03:28:00,VALID,915.936,VALID,0,VALID,98.7083,VALID,-0.0679233,VALID,17.3791,VALID,160,VALID,0
2000-06-25, 03:29:00,VALID,915.928,VALID,0,VALID,98.7833,VALID,-0.0509425,VALID,17.3888,VALID,161,VALID,0
2000-06-25, 03:30:00,VALID,915.932,VALID,0,VALID,98.8889,VALID,-0.0509425,VALID,17.4241,VALID,167,VALID,0.16226
2000-06-25, 03:31:00,VALID,915.905,VALID,0,VALID,98.8533,VALID,-0.0679233,VALID,17.4372,VALID,170,VALID,0.530664
2000-06-25, 03:32:00,VALID,915.889,VALID,0,VALID,98.5875,VALID,-0.0679233,VALID,17.3433,VALID,169,VALID,0.554893
2000-06-25, 03:33:00,VALID,915.872,VALID,0,VALID,98.5939,VALID,-0.0509425,VALID,17.3115,VALID,169,VALID,0.560547
2000-06-25, 03:34:00,VALID,915.867,VALID,0,VALID,98.7617,VALID,-0.0849042,VALID,17.3403,VALID,169,VALID,0.475361
2000-06-25, 03:35:00,VALID,915.858,VALID,0,VALID,98.852,VALID,-0.0679233,VALID,17.386,VALID,171,VALID,0.504102
2000-06-25, 03:36:00,VALID,915.873,VALID,0,VALID,98.9486,VALID,-0.0679233,VALID,17.4275,VALID,182,VALID,0.552837
2000-06-25, 03:37:00,VALID,915.868,VALID,0,VALID,98.9995,VALID,-0.0509425,VALID,17.4561,VALID,181,VALID,0.580078
2000-06-25, 03:38:00,VALID,915.867,VALID,0,VALID,98.8876,VALID,-0.0339617,VALID,17.463,VALID,171,VALID,0.666667
2000-06-25, 03:39:00,VALID,915.873,VALID,0,VALID,98.8037,VALID,-0.0339617,VALID,17.4305,VALID,168,VALID,0.632031
2000-06-25, 03:40:00,VALID,915.884,VALID,0,VALID,98.8673,VALID,-0.0509425,VALID,17.437,VALID,165,VALID,0.508429